Regional Weather Roundup
Issued by NWS Charleston, SC

Current Version | Previous Version | Graphics & Text | Print | Product List | Glossary On
Versions: 1 2 3 4 5 6 7 8 9 10 11 12 13 14 15 16 17 18 19 20 21 22 23 24 25 26 27 28 29 30 31 32 33 34 35 36 37 38 39 40 41 42 43 44 45 46 47 48 49 50
892
ASUS42 KCHS 241612
RWRCHS

REGIONAL WEATHER ROUNDUP
NATIONAL WEATHER SERVICE CHARLESTON SC
1200 PM EDT WED MAY 24 2017

NOTE: "FAIR" INDICATES FEW OR NO CLOUDS BELOW 12,000 FEET WITH NO
SIGNIFICANT WEATHER AND/OR OBSTRUCTIONS TO VISIBILITY.

NOT ALL STATIONS ARE QUALITY CONTROLLED. USE DATA WITH CAUTION...
ESPECIALLY DEWPOINT OBSERVATIONS.

SCZ027-030-031-034>040-042>050-241700-
...SOUTHEAST SOUTH CAROLINA...

CITY           SKY/WX    TMP DP  RH WIND       PRES   REMARKS
N CHARLESTON   PTSUNNY   81  69  67 SW17G24   29.67R
WATERFRONT PRK   N/A     79  73  82 SW13      29.66S
JOHNS ISLAND   CLOUDY    79  73  83 SW15G24   29.68S HAZE
PINOPOLIS        N/A     81  72  74 SW7       29.60S
MONCKS CORNER  PTSUNNY   79  70  73 SW10G16   29.67S
SUMMERVILLE    PTSUNNY   79  70  73 S5        29.67S
BEAUFORT MCAS  PTSUNNY   81  73  76 S9G17     29.67S
BEAUFORT ARPT  PTSUNNY   79  72  78 SW10      29.67S HAZE
HILTON HEAD IS NOT AVBL
WALTERBORO     FAIR      79  72  78 S9        29.69R
ALLENDALE      PTSUNNY   77  72  83 S7G13     29.64S

...SOUTHERN MIDLANDS AND PEE DEE...

CITY           SKY/WX    TMP DP  RH WIND       PRES   REMARKS
GEORGETOWN     PTSUNNY   79  72  78 S13       29.69R
KINGSTREE      CLOUDY    77  68  73 S5        29.67R
ORANGEBURG     PTSUNNY   76  70  82 S13       29.66R
BARNWELL       PTSUNNY   79  73  83 S7G14     29.65R
AIKEN          PTSUNNY   73  68  83 S8        29.67R
MANNING        PTSUNNY   77  72  83 SW24      29.66R
COLUMBIA       PTSUNNY   78  68  71 S10       29.63R
SUMTER         PTSUNNY   76  68  76 S14       29.63R
FLORENCE       CLOUDY    75  70  84 S8        29.67R
MYRTLE BEACH   NOT AVBL
N MYRTLE BEACH FAIR      79  72  79 S14       29.68S

$$

GAZ063-065-086>088-099>101-113>116-118-119-134>141-150-241700-
...SOUTHEAST GEORGIA...

CITY           SKY/WX    TMP DP  RH WIND       PRES   REMARKS
SAVANNAH ARPT  CLOUDY    80  69  69 S12       29.68F
HUNTER AAF     FAIR      80  75  86 S12       29.66R
FORT STEWART   PTSUNNY   78  70  78 S7        29.65R
STATESBORO     FAIR      77  77 100 S8        29.66S
SYLVANIA       FAIR      77  73  90 S7        29.65F
CLAXTON        CLOUDY    76  76 100 S3        29.66F

...CSRA...CENTRAL AND FAR SOUTHEAST GEORGIA...

CITY           SKY/WX    TMP DP  RH WIND       PRES   REMARKS
THOMSON        PTSUNNY   74  70  86 SW7       29.65S
AUGUSTA-BUSH   FAIR      79  70  74 S10G20    29.61R
AUGUSTA-DANIEL FAIR      78  67  68 S14G20    29.62S
SWAINSBORO     RAIN      73  73 100 S7        29.64F
VIDALIA        LGT RAIN  75  72  88 S8        29.63F
EASTMAN        CLOUDY    76  67  74 S7        29.64F
HAZLEHURST     LGT RAIN  74  74 100 S9G17     29.62F
ALMA           RAIN      74  72  93 S8        29.66F FOG
WAYCROSS       CLOUDY    74  74 100 S10G25    29.62F VSB 3/4
JESUP          LGT RAIN  77  70  78 S5        29.67F
BAXLEY         LGT RAIN  75  75 100 S7        29.65F
BRUNSWICK      CLOUDY    75  70  83 S13G21    29.71R
SAINT SIMONS   TSTM      74  71  91 S9        29.71S FOG

$$

SCZ027-028-034-036>038-045-046-048>050-GAZ119-141-241700-
...LAKE AND SUPPLEMENTAL COASTAL OBSERVATIONS...

STATION/POSITION TIME  TEMP    WIND        PRES    WAVE   SWELL
                       AIR SEA DIR/SP/G            HT/PER HT/PER/DIR
                 (UTC) (F)     (DEG/KT/KT) (MB)    (FT/S) (FT/S/D)
WINYAH BAY       1445   78     230/  9     1005.0
LAKE MURRAY      1520   74     170/  9/ 11 1002.0
ACE BASIN NERRS  1445   79     170/  1     1005.0
FORT PULASKI     1548   79     210/ 10/ 15 1005.4R
SAPELO ISLAND    1500   81     180/ 12     1005.0

$$

ANZ835-935-AMZ111-154-330-350-352-354-370-450-454-472-241700-
...C-MAN AND BUOY OBSERVATIONS...

STATION/POSITION TIME  TEMP    WIND        PRES    WAVE   SWELL
                       AIR SEA DIR/SP/G            HT/PER HT/PER/DIR
                 (UTC) (F)     (DEG/KT/KT) (MB)    (FT/S) (FT/S/D)
BUOY 41004       1550   77 77  220/ 16/ 19 1005.6F   6/ 7   3/170/ 7
BUOY 41008       1450   78 78  170/ 16/ 19 1004.7    4/ 6
FOLLY BEACH CMAN 1500   78     220/ 17/ 19 1005.5F
CAPERS NEARSHORE 1508   80 77  220/ 17/ 21 1004.7F
FRIPP NEARSHORE  1508   78 78  210/ 16/ 21 1004.1F


STATION/POSITION TIME  TEMP    WIND        PRES    WAVE   SWELL
                       AIR SEA DIR/SP/G            HT/PER HT/PER/DIR
                 (UTC) (F)     (DEG/KT/KT) (MB)    (FT/S) (FT/S/D)
5E ST. MARYS GA  1530      79                N/A     4/ 4
FRYING PAN BUOY  1550   77 77  220/ 16/ 21 1006.0R   8/ 9   3/190/ 9
BUOY 41025       1550   73 75  240/  8/ 10 1006.4F   5/ 8   5/190/ 8
CAPE LOOKOUT NC  1500   73     300/  3/  4 1006.1F
BUOY 41002       1550   77 76  200/ 19/ 25 1010.4F   9/ 8   2/ 70/11
BUOY 41010       1550   80 79  190/ 14/ 19 1010.0R   7/ 7   2/ 70/13
ST AUGUSTINE FL  1600   80 77  200/ 10/ 12 1006.8F


$$




USA.gov is the U.S. government's official web portal to all federal, state and local government web resources and services.